Back to catalog

THOR ABLESTAR R/B

AlivePO
NORAD 669·ROCKET BODY·🇺🇸 United States

Launched Sep 28, 1963 from Vandenberg Space Force Base

Loading…

Next Passes (next 24 hours)

TLE

FreshSource: Space-Track

Epoch: Sep 14, 2026, 03:22 UTC

1 00669U 63038A   26257.14087134  .00000044  00000-0  58147-4 0  9998
2 00669  89.9777 333.9721 0025043 218.0640 164.4729 13.46136629 91670

Track THOR ABLESTAR R/B in real time with AllMySat

Download on the App Store